Location: Bronschhofen
(47.4788°N, 9.0353°E)
Time: 21:18:41
(UTC+00:00)

Cosmos 1048 Rocket - Pass Details

Date: 20 May 2022
Orbit: 743 x 790 km, 74.0° (Epoch: 01 July)

Event Time Altitude Azimuth Distance (km) Brightness Sun altitude
Rises 01:26:59 0° 332° (NNW) 3,230 7.7 -16.8°
Reaches altitude 10° 01:29:28 10° 325° (NW) 2,293 6.8 -16.6°
Maximum altitude 01:34:18 41° 256° (WSW) 1,084 4.4 -16.2°
Enters shadow 01:36:35 26° 206° (SSW) 1,438 4.8 -16.0°
